Miscellaneous Local Product
Issued by NWS North Platte, NE

Home | Current Version | Previous Version | Text Only | Print | Product List | Glossary On
Versions: 1 2 3 4 5 6 7 8 9 10 11 12 13 14 15 16 17 18 19 20 21 22 23 24 25 26 27 28 29 30 31 32 33 34 35 36 37 38 39 40 41 42 43 44 45 46 47 48 49 50
000
AXUS43 KLBF 230010
MISLBF


WESTERN AND NORTH CENTRAL NEBRASKA HOURLY WEATHER ROUNDUP
NATIONAL WEATHER SERVICE NORTH PLATTE NE
700 PM CDT WED OCT 22 2014

***STATIONS NOT REPORTING VARIABLES SUCH AS SKY/WEATHER OR
PRESSURE ARE PROVIDED BY THE NEBRASKA DEPARTMENT OF
ROADS...RAWS...AND APRS NETWORKS...AND ARE NOT UNDER
NATIONAL WEATHER SERVICE QUALITY CONTROL***

...OBSERVATIONS IN AND NEAR THE EASTERN PANHANDLE OF NEBRASKA...

CITY           SKY/WX    TMP DP  RH WIND       PRES   REMARKS
PINE RIDGE     CLEAR     54  32  43 SW5       30.02S
CHADRON        CLEAR     60  29  30 CALM      30.02R
ALLIANCE       CLEAR     54  33  45 CALM      30.04R
SIDNEY         PTCLDY    57  33  40 E5        30.08R
WHITECLAY        N/A     58  31  36 W3          N/A
RUSHVILLE        N/A     58  25  28 NW9         N/A
LISCO            N/A     59  24  26 CALM        N/A
BIG SPRINGS      N/A     69  33  26 N3          N/A
LEWELLEN         N/A     63  25  23 CALM        N/A
$$

...OBSERVATIONS IN NORTH CENTRAL NEBRASKA...

CITY           SKY/WX    TMP DP  RH WIND       PRES   REMARKS
VALENTINE      CLEAR     58  39  49 CALM      30.03R
THEDFORD       CLEAR     59  44  57 CALM      30.03R
AINSWORTH      CLEAR     56  44  62 CALM      30.03R
O`NEILL        CLOUDY    56  54  92 CALM      30.03R
ORD            CLOUDY    58  55  90 N3        30.01R
BROKEN BOW     CLEAR     58  54  86 N5        30.02R
BROWNLEE         N/A     62  39  42 N6          N/A
SPRINGVIEW       N/A     61  46  58 CALM        N/A
BREWSTER         N/A     59  52  77 SE3         N/A
ROSE             N/A     59  54  83 CALM        N/A
NEWPORT          N/A     55  51  86 S5          N/A
SARGENT          N/A     59  55  85 CALM        N/A
COMSTOCK         N/A     60  58  94 CALM        N/A
CHAMBERS         N/A     54  49  85 CALM        N/A
$$

...OBSERVATIONS IN SOUTHWEST NEBRASKA AND FAR NORTHEAST COLORADO...

CITY           SKY/WX    TMP DP  RH WIND       PRES   REMARKS
WRAY           FAIR      63  37  37 N7        30.05R
HOLYOKE        FAIR      61  34  36 N6        30.07R
IMPERIAL       CLEAR     61  38  42 N7        30.04R
OGALLALA       CLEAR     57  35  44 N5        30.04R
NORTH PLATTE   CLEAR     58  51  78 E6        30.02R
MCCOOK         CLEAR     64  50  60 E5        30.02R
LEXINGTON      CLEAR     62  55  76 CALM      30.02R
PAXTON           N/A     70  34  26 NW5         N/A
SUTHERLAND       N/A     67  22  18 W3          N/A
BRADY            N/A     64  53  68 CALM        N/A
GOTHENBURG       N/A     67  50  53 E3          N/A
CALLAWAY         N/A     66  57  72 E5          N/A
$$

...SOME WEATHER OBSERVATIONS FROM AROUND THE REGION...

CITY           SKY/WX    TMP DP  RH WIND       PRES   REMARKS
DENVER         MOCLDY    63  37  38 CALM      30.10R
LARAMIE        CLEAR     50  23  34 W15       30.17R
CHEYENNE       PTCLDY    59  27  29 NW5       30.12R
SCOTTSBLUFF    PTCLDY    61  24  24 NW9       30.03R
RAPID CITY     CLEAR     55  34  45 NE6       30.00R
PIERRE         CLEAR     59  41  51 CALM      29.94R
WINNER         FAIR      61  41  47 W6        30.00R
SIOUX FALLS    CLOUDY    59  57  93 SW5       29.97R
OMAHA          CLOUDY    71  53  52 SE17      30.00R
GRAND ISLAND   CLOUDY    62  59  90 SE3       30.02R FOG
KANSAS CITY    PTCLDY    64  55  72 SE10      30.10R
WICHITA        CLOUDY    73  54  51 S9        30.05R
HAYS           CLOUDY    64  54  68 S13       30.02R
LIBERAL        CLEAR     70  55  60 SE16G23   30.03R
GOODLAND       CLEAR     60  47  61 E6        30.05R
$$



USA.gov is the U.S. government's official web portal to all federal, state and local government web resources and services.